Corbin Foss — WDB5265 — position and weather

sailwx.info

Track history (hours):
 
Tides and Currents Weather Stations Pressure Air Temp Water Temp Dewpoint Dewpoint Depression Visibility Wind Speed Wind Dir Waves Ship Positions

Corbin Foss

Owner: Foss International, Inc, Seattle, WA. More information available from US FCC via Universal Licensing System and Coast Guard Vessel Documentation Center.

Last reported at 2015-May-30 08:28 UTC. Time now 2015-May-30 08:37 UTC.
Position N 49°41' W 124°36'.

Type: Tow > 200 m length. MMSI: 366902220.

Date/timePositionNaut miles runAvg speedWind from/ knotsBaromVisibWave heightAir tempDewpointWater temp
2015-May-30 08:28N 49°41' W 124°36'7 5.5
2015-May-30 07:14N 49°36' W 124°27'6 5.9
2015-May-30 06:11N 49°33' W 124°19'4 6.1
2015-May-30 05:32N 49°31' W 124°14'7 6.1
2015-May-30 04:21N 49°27' W 124°05'6 6.3
2015-May-30 03:22N 49°23' W 123°58'5 6.4
2015-May-30 02:33N 49°20' W 123°51'7 6.7
2015-May-30 01:33N 49°16' W 123°43'7 6.6
2015-May-30 00:33N 49°12' W 123°35'7 6.6
2015-May-29 23:33N 49°08' W 123°28'7 6.6
2015-May-29 22:33N 49°03' W 123°20'8 7.6
2015-May-29 21:33N 48°59' W 123°11'7 7.3
2015-May-29 20:33N 48°54' W 123°03'7 6.9
2015-May-29 19:33N 48°49' W 122°55'7 7.0
2015-May-29 18:32N 48°45' W 122°46'6 6.6
2015-May-29 17:33N 48°40' W 122°40'5 4.8
2015-May-29 16:33N 48°40' W 122°33'5 4.6
2015-May-29 15:32N 48°44' W 122°30'0 0.2
2015-May-29 14:33N 48°45' W 122°30'1 0.1
2015-May-29 10:07N 48°45' W 122°30'0 0.0
2015-May-29 09:10N 48°45' W 122°30'0 0.0
2015-May-29 08:22N 48°45' W 122°30'0 0.0
2015-May-29 07:28N 48°45' W 122°30'0 0.0
2015-May-29 06:25N 48°45' W 122°30'0 0.0
2015-May-29 04:19N 48°45' W 122°30'0 0.0
2015-May-29 01:31N 48°45' W 122°30'0 0.0
2015-May-28 15:07N 48°45' W 122°30'0 0.0
2015-May-28 14:13N 48°45' W 122°30'0 0.0
2015-May-28 13:19N 48°45' W 122°30'0 0.0
2015-May-28 12:31N 48°45' W 122°30'0 0.0
2015-May-27 16:07N 48°45' W 122°30'0 0.0
2015-May-27 03:19N 48°45' W 122°30'0 0.0
2015-May-26 14:13N 48°45' W 122°30'0 0.0
2015-May-26 13:19N 48°45' W 122°30'0 0.0
2015-May-26 06:19N 48°45' W 122°30'  
2015-May-21 23:19N 48°45' W 122°30'0 0.0
2015-May-21 10:22N 48°45' W 122°30'0 0.0
2015-May-21 09:28N 48°45' W 122°30'0 0.0
2015-May-21 08:16N 48°45' W 122°30'0 0.0
2015-May-21 07:28N 48°45' W 122°30'0 0.0
2015-May-21 04:31N 48°45' W 122°30'0 0.0
2015-May-20 23:32N 48°45' W 122°30'0 0.0
2015-May-20 20:26N 48°45' W 122°30'0 0.0
2015-May-20 19:04N 48°45' W 122°30'0 0.0
2015-May-20 18:10N 48°45' W 122°30'0 0.0
2015-May-20 10:31N 48°45' W 122°30'0 0.0
2015-May-20 09:23N 48°45' W 122°30'  
Track history (hours):
 
Tides and Currents Weather Stations Pressure Air Temp Water Temp Dewpoint Dewpoint Depression Visibility Wind Speed Wind Dir Waves Ship Positions

Corbin Foss

Owner: Foss International, Inc, Seattle, WA. More information available from US FCC via Universal Licensing System and Coast Guard Vessel Documentation Center.

Last reported at 2015-May-30 08:28 UTC. Time now 2015-May-30 08:37 UTC.
Position N 49°41' W 124°36'.

Type: Tow > 200 m length. MMSI: 366902220.

Date/timePositionNaut miles runAvg speedWind from/ knotsBaromVisibWave heightAir tempDewpointWater temp
2015-May-30 08:28N 49°41' W 124°36'7 5.5
2015-May-30 07:14N 49°36' W 124°27'6 5.9
2015-May-30 06:11N 49°33' W 124°19'4 6.1
2015-May-30 05:32N 49°31' W 124°14'7 6.1
2015-May-30 04:21N 49°27' W 124°05'6 6.3
2015-May-30 03:22N 49°23' W 123°58'5 6.4
2015-May-30 02:33N 49°20' W 123°51'7 6.7
2015-May-30 01:33N 49°16' W 123°43'7 6.6
2015-May-30 00:33N 49°12' W 123°35'7 6.6
2015-May-29 23:33N 49°08' W 123°28'7 6.6
2015-May-29 22:33N 49°03' W 123°20'8 7.6
2015-May-29 21:33N 48°59' W 123°11'7 7.3
2015-May-29 20:33N 48°54' W 123°03'7 6.9
2015-May-29 19:33N 48°49' W 122°55'7 7.0
2015-May-29 18:32N 48°45' W 122°46'6 6.6
2015-May-29 17:33N 48°40' W 122°40'5 4.8
2015-May-29 16:33N 48°40' W 122°33'5 4.6
2015-May-29 15:32N 48°44' W 122°30'0 0.2
2015-May-29 14:33N 48°45' W 122°30'1 0.1
2015-May-29 10:07N 48°45' W 122°30'0 0.0
2015-May-29 09:10N 48°45' W 122°30'0 0.0
2015-May-29 08:22N 48°45' W 122°30'0 0.0
2015-May-29 07:28N 48°45' W 122°30'0 0.0
2015-May-29 06:25N 48°45' W 122°30'0 0.0
2015-May-29 04:19N 48°45' W 122°30'0 0.0
2015-May-29 01:31N 48°45' W 122°30'0 0.0
2015-May-28 15:07N 48°45' W 122°30'0 0.0
2015-May-28 14:13N 48°45' W 122°30'0 0.0
2015-May-28 13:19N 48°45' W 122°30'0 0.0
2015-May-28 12:31N 48°45' W 122°30'0 0.0
2015-May-27 16:07N 48°45' W 122°30'0 0.0
2015-May-27 03:19N 48°45' W 122°30'0 0.0
2015-May-26 14:13N 48°45' W 122°30'0 0.0
2015-May-26 13:19N 48°45' W 122°30'0 0.0
2015-May-26 06:19N 48°45' W 122°30'  
2015-May-21 23:19N 48°45' W 122°30'0 0.0
2015-May-21 10:22N 48°45' W 122°30'0 0.0
2015-May-21 09:28N 48°45' W 122°30'0 0.0
2015-May-21 08:16N 48°45' W 122°30'0 0.0
2015-May-21 07:28N 48°45' W 122°30'0 0.0
2015-May-21 04:31N 48°45' W 122°30'0 0.0
2015-May-20 23:32N 48°45' W 122°30'0 0.0
2015-May-20 20:26N 48°45' W 122°30'0 0.0
2015-May-20 19:04N 48°45' W 122°30'0 0.0
2015-May-20 18:10N 48°45' W 122°30'0 0.0
2015-May-20 10:31N 48°45' W 122°30'0 0.0
2015-May-20 09:23N 48°45' W 122°30'  

Dump ship's entire track history